Location: Dalton
(34.7700°N, 84.9700°W)
Time: 13:44:37
(UTC-05:00)

Vanguard 2 - All Passes

Search period start: 16 December 2017 00:00
Search period end: 26 December 2017 00:00
Orbit: 553 x 2939 km, 32.9° (Epoch: 15 December)

Date Brightness Start Highest point End Pass type
(mag) Time Alt. Az. Time Alt. Az. Time Alt. Az.
16 Dec - 12:35:58 10° SSW 12:46:26 28° SSE 12:53:38 10° E daylight
16 Dec - 14:46:06 10° WSW 14:56:17 54° SSE 15:02:23 10° E daylight
16 Dec - 16:57:49 10° W 17:05:12 75° S 17:09:54 10° E daylight
16 Dec - 19:08:34 10° W 19:13:20 43° SSW 19:17:08 10° SE visible
17 Dec - 10:46:58 10° S 10:53:59 15° SSE 10:59:54 10° ESE daylight
17 Dec - 12:53:01 10° SW 13:04:41 36° SSE 13:12:15 10° E daylight
17 Dec - 15:04:12 10° WSW 15:14:26 64° SSE 15:20:29 10° E daylight
17 Dec - 17:16:10 10° W 17:23:19 74° S 17:27:55 10° E daylight
17 Dec - 19:26:56 10° W 19:31:16 31° SSW 19:34:49 10° SE visible
18 Dec - 11:02:02 10° S 11:12:17 21° SSE 11:20:11 10° ESE daylight
18 Dec - 13:10:28 10° SW 13:22:54 46° SSE 13:30:37 10° E daylight
18 Dec - 15:22:28 10° WSW 15:32:35 72° S 15:38:32 10° E daylight
18 Dec - 17:34:29 10° W 17:41:24 67° S 17:45:54 10° ESE daylight
18 Dec - 19:45:31 10° W 19:49:06 21° SSW 19:52:11 10° SSE visible
19 Dec - 11:18:14 10° SSW 11:30:32 29° SSE 11:39:25 10° E daylight
19 Dec - 13:28:15 10° SW 13:41:06 55° SSE 13:48:50 10° E daylight
19 Dec - 15:40:49 10° W 15:50:45 77° S 15:56:35 10° E daylight
19 Dec - 17:52:50 10° W 17:59:25 55° SSW 18:03:49 10° ESE visible
19 Dec - 20:04:39 10° WSW 20:06:51 13° SW 20:08:53 10° S visible
20 Dec - 09:30:14 10° S 09:37:38 14° SE 09:44:11 10° ESE daylight
20 Dec - 11:35:06 10° SSW 11:48:46 37° SSE 11:58:09 10° E daylight
20 Dec - 13:46:18 10° WSW 13:59:18 65° SSE 14:06:57 10° E daylight
20 Dec - 15:59:14 10° W 16:08:55 78° S 16:14:37 10° E daylight
20 Dec - 18:11:12 10° W 18:17:21 43° SSW 18:21:36 10° SE visible
21 Dec - 09:44:48 10° S 09:55:51 21° SE 10:04:58 10° ESE daylight
21 Dec - 11:52:24 10° SW 12:06:59 46° SSE 12:16:35 10° E daylight
21 Dec - 14:04:33 10° WSW 14:17:30 73° S 14:25:03 10° E daylight
21 Dec - 16:17:39 10° W 16:27:03 75° S 16:32:38 10° ESE daylight
21 Dec - 18:29:41 10° W 18:35:12 31° SSW 18:39:11 10° SSE visible
22 Dec - 10:00:43 10° SSW 10:14:01 28° SSE 10:24:29 10° E daylight
22 Dec - 12:10:02 10° SW 12:25:12 55° SSE 12:34:52 10° E daylight
22 Dec - 14:22:55 10° WSW 14:35:43 78° S 14:43:07 10° E daylight
22 Dec - 16:36:04 10° W 16:45:08 67° SSW 16:50:35 10° ESE daylight
22 Dec - 18:48:23 10° W 18:52:55 22° SW 18:56:25 10° SSE visible
23 Dec - 08:14:45 10° SSE 08:20:56 13° SE 08:26:45 10° ESE daylight
23 Dec - 10:17:20 10° SSW 10:32:12 36° SSE 10:43:24 10° E daylight
23 Dec - 12:27:59 10° WSW 12:43:26 64° SSE 12:53:04 10° E daylight
23 Dec - 14:41:23 10° W 14:53:56 81° S 15:01:10 10° E daylight
23 Dec - 16:54:29 10° W 17:03:09 56° SSW 17:08:27 10° ESE daylight
23 Dec - 19:07:41 10° WSW 19:10:32 14° SW 19:12:59 10° S visible
24 Dec - 08:28:21 10° S 08:39:01 19° SE 08:48:39 10° ESE daylight
24 Dec - 10:34:27 10° SW 10:50:22 45° SSE 11:01:59 10° E daylight
24 Dec - 12:46:09 10° WSW 13:01:40 72° SSE 13:11:12 10° E daylight
24 Dec - 14:59:52 10° W 15:12:09 80° S 15:19:12 10° E daylight
24 Dec - 17:12:57 10° W 17:21:03 44° SSW 17:26:10 10° SE daylight
25 Dec - 08:43:51 10° S 08:57:04 26° SE 09:08:38 10° E daylight
25 Dec - 10:51:56 10° SW 11:08:33 54° SSE 11:20:22 10° E daylight
25 Dec - 13:04:28 10° WSW 13:19:56 78° S 13:29:18 10° E daylight
25 Dec - 15:18:21 10° W 15:30:19 75° S 15:37:13 10° ESE daylight
25 Dec - 17:31:31 10° W 17:38:49 33° SSW 17:43:40 10° SSE daylight
